TimeAEST,TemperatureF,Dew PointF,Humidity,Sea Level PressureIn,VisibilityMPH,Wind Direction,Wind SpeedMPH,Gust SpeedMPH,PrecipitationIn,Events,Conditions,WindDirDegrees,DateUTC
12:00 AM,69,67,92,30.02,,Calm,Calm,,,,,,2013-09-11 14:00:00
12:00 AM,68.0,68.0,100,30.01,6.2,Calm,Calm,-,N/A,,Partly Cloudy,0,2013-09-11 14:00:00
12:30 AM,68.0,66.2,94,30.01,6.2,South,4.6,-,N/A,,Partly Cloudy,170,2013-09-11 14:30:00
1:00 AM,68,65,88,30.02,,SSE,6.9,,,,,150,2013-09-11 15:00:00
1:00 AM,68.0,66.2,94,30.01,6.2,SSE,6.9,-,N/A,,Partly Cloudy,150,2013-09-11 15:00:00
1:30 AM,68.0,66.2,94,30.01,-9999.0,West,3.5,-,N/A,,Clear,260,2013-09-11 15:30:00
2:00 AM,66.2,64.4,94,30.01,-9999.0,Calm,Calm,-,N/A,,Clear,0,2013-09-11 16:00:00
2:30 AM,64.4,64.4,100,30.01,-9999.0,Calm,Calm,-,N/A,,Clear,0,2013-09-11 16:30:00
3:00 AM,65,64,96,30.00,4,Calm,Calm,,,,,,2013-09-11 17:00:00
3:00 AM,64.4,64.4,100,29.98,6.2,Calm,Calm,-,N/A,,Partly Cloudy,0,2013-09-11 17:00:00
3:24 AM,64.4,64.4,100,29.98,6.2,Calm,Calm,-,N/A,Fog,Shallow Fog,0,2013-09-11 17:24:00
3:30 AM,64.4,64.4,100,29.98,6.2,Calm,Calm,-,N/A,Fog,Shallow Fog,0,2013-09-11 17:30:00
4:00 AM,65,64,96,29.99,,Calm,Calm,,,,,,2013-09-11 18:00:00
4:00 AM,64.4,64.4,100,29.98,6.2,Calm,Calm,-,N/A,Fog,Shallow Fog,0,2013-09-11 18:00:00
4:30 AM,66.2,64.4,94,29.98,6.2,South,5.8,-,N/A,,Partly Cloudy,190,2013-09-11 18:30:00
5:00 AM,66.2,64.4,94,29.98,6.2,WSW,3.5,-,N/A,,Partly Cloudy,240,2013-09-11 19:00:00
5:30 AM,68.0,62.6,83,30.01,6.2,South,6.9,-,N/A,,Partly Cloudy,190,2013-09-11 19:30:00
6:00 AM,68.0,62.6,83,30.01,6.2,South,6.9,-,N/A,,Partly Cloudy,170,2013-09-11 20:00:00
6:30 AM,66.2,64.4,94,30.01,6.2,NNW,3.5,-,N/A,,Partly Cloudy,340,2013-09-11 20:30:00
7:00 AM,67,64,89,30.04,,Calm,Calm,,,,,,2013-09-11 21:00:00
7:00 AM,66.2,64.4,94,30.04,6.2,Calm,Calm,-,N/A,,Partly Cloudy,0,2013-09-11 21:00:00
7:30 AM,69.8,66.2,88,30.04,6.2,NNW,1.2,-,N/A,,Partly Cloudy,330,2013-09-11 21:30:00
8:00 AM,73.4,66.2,78,30.04,6.2,Calm,Calm,-,N/A,,Partly Cloudy,0,2013-09-11 22:00:00
8:30 AM,75.2,64.4,69,30.04,6.2,ESE,4.6,-,N/A,,Partly Cloudy,120,2013-09-11 22:30:00
9:00 AM,77,66,60,30.04,19,SE,5.8,,,,Partly Cloudy,130,2013-09-11 23:00:00
9:00 AM,77.0,66.2,69,30.04,6.2,SE,5.8,-,N/A,,Partly Cloudy,130,2013-09-11 23:00:00
9:30 AM,78.8,66.2,65,30.04,6.2,ESE,5.8,-,N/A,,Partly Cloudy,110,2013-09-11 23:30:00
10:00 AM,81,66,51,30.05,,NE,4.6,,,,,40,2013-09-12 00:00:00
10:00 AM,80.6,66.2,61,30.04,6.2,NE,4.6,-,N/A,,Partly Cloudy,40,2013-09-12 00:00:00
10:30 AM,82.4,66.2,58,30.04,6.2,ENE,3.5,-,N/A,,Partly Cloudy,60,2013-09-12 00:30:00
11:00 AM,82.4,66.2,58,30.01,6.2,NE,8.1,-,N/A,,Partly Cloudy,40,2013-09-12 01:00:00
11:30 AM,82.4,66.2,58,30.01,6.2,NNE,8.1,-,N/A,,Partly Cloudy,30,2013-09-12 01:30:00
12:00 PM,83,66,48,29.99,19,NE,8.1,,,,Partly Cloudy,50,2013-09-12 02:00:00
12:00 PM,82.4,66.2,58,29.98,6.2,NE,8.1,-,N/A,,Partly Cloudy,50,2013-09-12 02:00:00
12:30 PM,82.4,66.2,58,29.98,6.2,NNE,9.2,-,N/A,,Partly Cloudy,20,2013-09-12 02:30:00
1:00 PM,82,66,50,29.98,,NNE,10.4,,,,,30,2013-09-12 03:00:00
1:00 PM,82.4,66.2,58,29.95,6.2,NNE,10.4,-,N/A,,Partly Cloudy,30,2013-09-12 03:00:00
1:30 PM,82.4,68.0,62,29.95,6.2,NNE,10.4,-,N/A,,Partly Cloudy,20,2013-09-12 03:30:00
2:00 PM,82.4,68.0,62,29.95,6.2,NNE,11.5,-,N/A,,Partly Cloudy,20,2013-09-12 04:00:00
2:30 PM,80.6,68.0,65,29.92,6.2,NNE,10.4,-,N/A,,Partly Cloudy,20,2013-09-12 04:30:00
3:00 PM,82,69,57,29.94,19,NNE,11.5,,,,Partly Cloudy,20,2013-09-12 05:00:00
3:00 PM,82.4,69.8,66,29.92,6.2,NNE,11.5,-,N/A,,Partly Cloudy,20,2013-09-12 05:00:00
3:30 PM,80.6,68.0,65,29.92,6.2,NNE,10.4,-,N/A,,Partly Cloudy,30,2013-09-12 05:30:00
4:00 PM,80,69,62,29.94,,NNE,8.1,,,,,20,2013-09-12 06:00:00
4:00 PM,80.6,69.8,70,29.92,-9999.0,NNE,8.1,-,N/A,,Clear,20,2013-09-12 06:00:00
4:30 PM,78.8,68.0,69,29.92,-9999.0,NNE,8.1,-,N/A,,Clear,20,2013-09-12 06:30:00
5:00 PM,77.0,68.0,74,29.92,-9999.0,NNE,6.9,-,N/A,,Clear,20,2013-09-12 07:00:00
5:30 PM,77.0,69.8,78,29.92,-9999.0,NNE,6.9,-,N/A,,Clear,20,2013-09-12 07:30:00
6:00 PM,74,69,81,29.94,,North,2.3,,,,,10,2013-09-12 08:00:00
6:00 PM,75.2,69.8,83,29.92,-9999.0,North,2.3,-,N/A,,Clear,10,2013-09-12 08:00:00
6:30 PM,73.4,69.8,88,29.95,-9999.0,Calm,Calm,-,N/A,,Clear,0,2013-09-12 08:30:00
7:00 PM,72,69,88,29.96,,Calm,Calm,,,,,,2013-09-12 09:00:00
7:00 PM,71.6,69.8,94,29.95,-9999.0,Calm,Calm,-,N/A,,Clear,0,2013-09-12 09:00:00
7:30 PM,69.8,68.0,94,29.95,-9999.0,Calm,Calm,-,N/A,,Clear,0,2013-09-12 09:30:00
8:00 PM,69.8,68.0,94,29.95,-9999.0,Calm,Calm,-,N/A,,Clear,0,2013-09-12 10:00:00
8:30 PM,69.8,68.0,94,29.95,-9999.0,West,5.8,-,N/A,,Clear,280,2013-09-12 10:30:00
9:00 PM,69,67,92,29.98,,West,3.5,,,,,280,2013-09-12 11:00:00
9:00 PM,69.8,68.0,94,29.98,-9999.0,West,3.5,-,N/A,,Clear,280,2013-09-12 11:00:00
9:30 PM,68.0,66.2,94,29.98,-9999.0,West,3.5,-,N/A,,Clear,270,2013-09-12 11:30:00
10:00 PM,66,64,91,29.99,,Calm,Calm,,,,,,2013-09-12 12:00:00
10:00 PM,66.2,64.4,94,29.98,-9999.0,Calm,Calm,-,N/A,,Clear,0,2013-09-12 12:00:00
10:30 PM,64.4,62.6,94,29.98,-9999.0,Calm,Calm,-,N/A,,Clear,0,2013-09-12 12:30:00
11:00 PM,64.4,62.6,94,29.98,-9999.0,West,1.2,-,N/A,,Clear,260,2013-09-12 13:00:00
11:30 PM,64.4,62.6,94,29.98,-9999.0,Calm,Calm,-,N/A,,Clear,0,2013-09-12 13:30:00